When you browse on this site, cookies collect data to enhance your experience and personalize the content and advertising you see.
Visit our Privacy Policy to learn more. By continuing to use the site, you agree to this use of cookies and data.
  • In Spain
  • List of Countries
  • For 7 days
  • Water Temperature
  • Satellite Maps
  • Weather Map
  • Weather Widgets
  • user-avatar
    Login

    Hourly Weather Lykoshino

    Today, 19 February, Tuesday

    Time Temperature Precipitation Wind Pressure Humidity
    00:00 -9°C° 0 mm 4 mps 747 mmHg 83%
    01:00 -9°C° 0 mm 4 mps 746 mmHg 80%
    02:00 -7°C° 0 mm 5 mps 745 mmHg 76%
    03:00 -7°C° 0 mm 5 mps 745 mmHg 75%
    04:00 -7°C° 0 mm 5 mps 744 mmHg 75%
    05:00 -6°C° 0 mm 5 mps 743 mmHg 74%
    06:00 -6°C° 0 mm 5 mps 743 mmHg 78%
    07:00 -6°C° 0 mm 5 mps 742 mmHg 81%
    08:00 -6°C° 0 mm 5 mps 742 mmHg 85%
    09:00 -5°C° 0 mm 5 mps 741 mmHg 86%
    10:00 -4°C° 0 mm 5 mps 741 mmHg 86%
    11:00 -2°C° 0 mm 5 mps 741 mmHg 87%
    12:00 -1°C° 0 mm 5 mps 740 mmHg 88%
    13:00 -1°C° 0 mm 4 mps 740 mmHg 89%
    14:00 -1°C° 0 mm 4 mps 739 mmHg 90%
    15:00 -1°C° 0 mm 4 mps 739 mmHg 91%
    16:00 0°C° 0 mm 3 mps 739 mmHg 91%
    17:00 0°C° 0 mm 3 mps 738 mmHg 91%
    18:00 0°C° 0 mm 3 mps 737 mmHg 91%
    19:00 -1°C° 0 mm 4 mps 737 mmHg 90%
    20:00 -1°C° 0 mm 4 mps 736 mmHg 90%
    21:00 -1°C° 0 mm 4 mps 735 mmHg 90%
    22:00 -1°C° 0 mm 4 mps 734 mmHg 90%
    23:00 -1°C° 0 mm 4 mps 734 mmHg 91%

    Tomorrow, 20 February, Wednesday

    Time Temperature Precipitation Wind Pressure Humidity
    00:00 -1°C° 0.1 mm 4 mps 733 mmHg 91%
    01:00 -1°C° 0.1 mm 4 mps 732 mmHg 91%
    02:00 -1°C° 0.1 mm 4 mps 732 mmHg 91%
    03:00 -1°C° 0.2 mm 4 mps 731 mmHg 92%
    04:00 -1°C° 0.2 mm 4 mps 731 mmHg 93%
    05:00 -1°C° 0.2 mm 4 mps 731 mmHg 94%
    06:00 -1°C° 0.1 mm 4 mps 731 mmHg 94%
    07:00 -1°C° 0.1 mm 4 mps 731 mmHg 95%
    08:00 -1°C° 0.1 mm 4 mps 731 mmHg 95%
    09:00 -1°C° 0.2 mm 4 mps 731 mmHg 95%
    10:00 0°C° 0.2 mm 4 mps 730 mmHg 94%
    11:00 0°C° 0.2 mm 4 mps 730 mmHg 94%
    12:00 0°C° 0.1 mm 4 mps 730 mmHg 94%
    13:00 0°C° 0.1 mm 4 mps 730 mmHg 94%
    14:00 0°C° 0.1 mm 4 mps 730 mmHg 94%
    15:00 0°C° 0.2 mm 4 mps 730 mmHg 94%
    16:00 +1°C° 0.2 mm 3 mps 729 mmHg 93%
    17:00 0°C° 0.2 mm 3 mps 729 mmHg 93%
    18:00 0°C° 0.3 mm 3 mps 729 mmHg 93%
    19:00 0°C° 0.3 mm 3 mps 729 mmHg 94%
    20:00 0°C° 0.3 mm 3 mps 729 mmHg 94%
    21:00 0°C° 0.1 mm 3 mps 729 mmHg 94%
    22:00 0°C° 0.1 mm 3 mps 729 mmHg 94%
    23:00 0°C° 0.1 mm 3 mps 729 mmHg 95%

    Day after tomorrow, 21 February, Thursday

    Time Temperature Precipitation Wind Pressure Humidity
    00:00 -1°C° 0.4 mm 3 mps 730 mmHg 94%
    01:00 -2°C° 0.4 mm 4 mps 730 mmHg 93%
    02:00 -2°C° 0.4 mm 5 mps 730 mmHg 92%
    03:00 -5°C° 0.2 mm 5 mps 731 mmHg 91%
    04:00 -6°C° 0.2 mm 5 mps 731 mmHg 89%
    05:00 -7°C° 0.2 mm 5 mps 732 mmHg 88%
    06:00 -7°C° 0.2 mm 5 mps 732 mmHg 88%
    07:00 -7°C° 0.2 mm 5 mps 733 mmHg 88%
    08:00 -7°C° 0.2 mm 5 mps 734 mmHg 88%
    09:00 -9°C° 0.2 mm 6 mps 735 mmHg 87%
    10:00 -9°C° 0.2 mm 6 mps 736 mmHg 86%
    11:00 -10°C° 0.2 mm 6 mps 737 mmHg 85%
    12:00 -10°C° 0.1 mm 6 mps 738 mmHg 83%
    13:00 -10°C° 0.1 mm 6 mps 739 mmHg 82%
    14:00 -11°C° 0.1 mm 6 mps 740 mmHg 80%
    15:00 -11°C° 0.1 mm 6 mps 741 mmHg 80%
    16:00 -12°C° 0.1 mm 6 mps 743 mmHg 79%
    17:00 -12°C° 0.1 mm 6 mps 744 mmHg 79%
    18:00 -14°C° 0 mm 6 mps 745 mmHg 79%
    19:00 -13°C° 0 mm 5 mps 745 mmHg 80%
    20:00 -14°C° 0 mm 5 mps 746 mmHg 80%
    21:00 -14°C° 0 mm 5 mps 747 mmHg 81%
    22:00 -14°C° 0 mm 5 mps 748 mmHg 81%
    23:00 -14°C° 0 mm 5 mps 748 mmHg 82%

    22 February, Friday

    Time Temperature Precipitation Wind Pressure Humidity
    00:00 -15°C° 0 mm 5 mps 749 mmHg 83%
    01:00 -15°C° 0 mm 5 mps 749 mmHg 84%
    02:00 -16°C° 0 mm 4 mps 750 mmHg 85%
    03:00 -16°C° 0 mm 4 mps 751 mmHg 85%
    04:00 -16°C° 0 mm 4 mps 751 mmHg 85%
    05:00 -17°C° 0 mm 4 mps 752 mmHg 85%
    06:00 -16°C° 0 mm 4 mps 752 mmHg 84%
    07:00 -16°C° 0 mm 4 mps 752 mmHg 83%
    08:00 -16°C° 0 mm 4 mps 752 mmHg 83%
    09:00 -15°C° 0 mm 4 mps 753 mmHg 82%
    10:00 -14°C° 0 mm 4 mps 753 mmHg 82%
    11:00 -13°C° 0 mm 5 mps 753 mmHg 81%
    12:00 -13°C° 0 mm 5 mps 753 mmHg 81%
    13:00 -13°C° 0 mm 5 mps 753 mmHg 80%
    14:00 -13°C° 0 mm 5 mps 754 mmHg 79%
    15:00 -13°C° 0 mm 5 mps 754 mmHg 80%
    16:00 -14°C° 0 mm 5 mps 755 mmHg 80%
    17:00 -14°C° 0 mm 5 mps 755 mmHg 80%
    18:00 -15°C° 0 mm 5 mps 756 mmHg 81%
    19:00 -15°C° 0 mm 5 mps 756 mmHg 82%
    20:00 -16°C° 0 mm 4 mps 757 mmHg 83%
    21:00 -16°C° 0 mm 4 mps 757 mmHg 84%
    22:00 -16°C° 0 mm 4 mps 757 mmHg 85%
    23:00 -16°C° 0 mm 4 mps 758 mmHg 86%

    23 February, Saturday

    Time Temperature Precipitation Wind Pressure Humidity
    00:00 -16°C° 0 mm 3 mps 758 mmHg 88%
    01:00 -16°C° 0 mm 3 mps 758 mmHg 90%
    02:00 -17°C° 0 mm 3 mps 758 mmHg 91%
    03:00 -17°C° 0 mm 3 mps 758 mmHg 93%
    04:00 -18°C° 0 mm 3 mps 758 mmHg 94%
    05:00 -17°C° 0 mm 2 mps 758 mmHg 95%
    06:00 -17°C° 0 mm 2 mps 759 mmHg 94%
    07:00 -17°C° 0 mm 2 mps 759 mmHg 93%
    08:00 -17°C° 0 mm 2 mps 759 mmHg 92%
    09:00 -13°C° 0 mm 1 mps 759 mmHg 88%
    10:00 -12°C° 0 mm 1 mps 759 mmHg 84%
    11:00 -10°C° 0 mm 1 mps 759 mmHg 80%
    12:00 -9°C° 0 mm 1 mps 759 mmHg 78%
    13:00 -8°C° 0 mm 1 mps 759 mmHg 77%
    14:00 -7°C° 0 mm 1 mps 759 mmHg 76%
    15:00 -8°C° 0 mm 1 mps 759 mmHg 79%
    16:00 -8°C° 0 mm 1 mps 758 mmHg 83%
    17:00 -9°C° 0 mm 1 mps 758 mmHg 87%
    18:00 -9°C° 0 mm 1 mps 758 mmHg 87%
    19:00 -9°C° 0 mm 1 mps 758 mmHg 87%
    20:00 -10°C° 0 mm 2 mps 759 mmHg 87%
    21:00 -10°C° 0 mm 2 mps 759 mmHg 87%
    22:00 -10°C° 0 mm 2 mps 759 mmHg 87%
    23:00 -10°C° 0 mm 2 mps 759 mmHg 87%

    24 February, Sunday

    Time Temperature Precipitation Wind Pressure Humidity
    00:00 -10°C° 0 mm 2 mps 759 mmHg 88%
    01:00 -10°C° 0 mm 2 mps 759 mmHg 90%
    02:00 -9°C° 0 mm 2 mps 759 mmHg 91%
    03:00 -10°C° 0 mm 2 mps 759 mmHg 93%
    04:00 -10°C° 0 mm 2 mps 758 mmHg 95%
    05:00 -10°C° 0 mm 2 mps 758 mmHg 97%
    06:00 -9°C° 0 mm 2 mps 758 mmHg 96%
    07:00 -9°C° 0 mm 2 mps 758 mmHg 96%
    08:00 -8°C° 0 mm 2 mps 758 mmHg 96%
    09:00 -7°C° 0 mm 2 mps 758 mmHg 95%
    10:00 -7°C° 0 mm 3 mps 758 mmHg 93%
    11:00 -5°C° 0 mm 3 mps 758 mmHg 92%
    12:00 -5°C° 0 mm 3 mps 758 mmHg 92%
    13:00 -4°C° 0 mm 3 mps 757 mmHg 92%
    14:00 -2°C° 0 mm 3 mps 757 mmHg 91%
    15:00 -4°C° 0 mm 3 mps 756 mmHg 92%
    16:00 -4°C° 0 mm 3 mps 756 mmHg 92%
    17:00 -4°C° 0 mm 3 mps 755 mmHg 93%
    18:00 -4°C° 0.1 mm 4 mps 755 mmHg 93%
    19:00 -3°C° 0.1 mm 4 mps 755 mmHg 93%
    20:00 -3°C° 0.1 mm 4 mps 754 mmHg 93%
    21:00 -3°C° 0.1 mm 4 mps 754 mmHg 93%
    22:00 -3°C° 0.1 mm 4 mps 753 mmHg 93%
    23:00 -2°C° 0.1 mm 4 mps 752 mmHg 93%
    Show more